This is the latest recevied weather packets stored in our database for station/object W4CPD. If no packets are shown the sender has not sent any weather packets the latest 10 day(s).
| Time | Temp. | Humidity | Pressure | Rain* | Wind** | Luminosity | Snow |
|---|---|---|---|---|---|---|---|
| 1777677618 | 15.56° C | 94% | 1011.6 hPa | 1.02 mm | - | - | - |
| 1777676461 | 16.67° C | 94% | 1012.3 hPa | 1.02 mm | - | - | - |
| 1777675528 | 16.67° C | 95% | 1012.2 hPa | 1.02 mm | - | - | - |
| 1777675214 | 17.22° C | 95% | 1012 hPa | 1.02 mm | - | - | - |
| 1777674316 | 17.22° C | 94% | 1012.1 hPa | 0.76 mm | - | - | - |
| 1777673729 | 17.78° C | 94% | 1012.1 hPa | 0.51 mm | - | - | - |
| 1777672827 | 17.78° C | 92% | 1012 hPa | 0.25 mm | - | - | - |
| 1777672213 | 17.78° C | 91% | 1012 hPa | 0 mm | - | - | - |
| 1777671613 | 18.33° C | 90% | 1012.1 hPa | 0 mm | - | - | - |
| 1777671313 | 18.33° C | 90% | 1011.9 hPa | 0 mm | - | - | - |
| 1777669518 | 18.33° C | 91% | 1011.7 hPa | 0 mm | - | - | - |
| 1777667712 | 18.33° C | 89% | 1011.8 hPa | 0 mm | - | - | - |
| 1777664730 | 18.89° C | 90% | 1012.6 hPa | 0 mm | - | - | - |
| 1777661716 | 19.44° C | 87% | 1013.7 hPa | 0 mm | - | - | - |
| 1777661414 | 19.44° C | 87% | 1013.8 hPa | 0 mm | - | - | - |
| 1777656631 | 19.44° C | 90% | 1014.1 hPa | 0 mm | - | - | - |
| 1777655114 | 19.44° C | 91% | 1014 hPa | 0 mm | - | - | - |
| 1777653314 | 18.89° C | 93% | 1014.7 hPa | 0 mm | - | - | - |
| 1777652715 | 18.89° C | 94% | 1014.7 hPa | 0 mm | - | - | - |
| 1777651513 | 18.33° C | 94% | 1014.7 hPa | 0 mm | - | - | - |
| 1777650014 | 18.33° C | 93% | 1014.8 hPa | 0 mm | - | - | - |
| 1777646729 | 18.33° C | 94% | 1014.4 hPa | 0 mm | - | - | - |
| 1777644612 | 18.33° C | 95% | 1013.6 hPa | 0 mm | - | - | - |
| 1777643136 | 18.33° C | 95% | 1013.8 hPa | 0 mm | - | - | - |
| 1777641014 | 18.33° C | 94% | 1014 hPa | 0 mm | - | - | - |
* Rain latest hour (hover to see other rain measurements)
** Current wind speed in m/s (hover to see current wind gust speed)